contact:dominique.lefevre@mio.osupytheas.fr, maurice.libes@osupytheas.fr, didier.mallarino@osupytheas.fr
Project:EMSO http://www.emso-fr.org/EMSO-France
Depth: 2436.0 m
Title:EMSO Ligure Ouest : Data MII capteur CSTAR
DateTime,Latitude,Longitude,Instrument_Serial,Reference_Counts,Signal_Counts,Corrected_Signal_raw_counts,Calculated_Beam_c_inverse_meters,Internal_thermistor_counts
DateTime,Latitude,Longitude,Instrument_Serial,Reference_Counts,Signal_Counts,Corrected_Signal_raw_counts,Calculated_Beam_c_inverse_meters,Internal_thermistor_counts
2022-10-08T00:03:00,42.805,6.029,CST-1368DR,4551,5039,11782,01.127,551
2022-10-08T00:06:02,42.805,6.029,CST-1368DR,4551,5015,11727,01.146,551
2022-10-08T00:09:03,42.805,6.029,CST-1368DR,4551,5042,11790,01.124,551
2022-10-08T00:12:05,42.805,6.029,CST-1368DR,4551,5039,11784,01.126,551
2022-10-08T00:15:06,42.805,6.029,CST-1368DR,4551,5040,11785,01.126,551
2022-10-08T00:18:08,42.805,6.029,CST-1368DR,4551,5041,11787,01.125,551
2022-10-08T00:21:10,42.805,6.029,CST-1368DR,4551,5031,11765,01.133,551
2022-10-08T00:24:11,42.805,6.029,CST-1368DR,4551,5037,11778,01.128,551
2022-10-08T00:27:13,42.805,6.029,CST-1368DR,4551,5040,11786,01.126,551
2022-10-08T00:30:14,42.805,6.029,CST-1368DR,4551,5041,11788,01.125,551
2022-10-08T00:33:16,42.805,6.029,CST-1368DR,4551,5038,11780,01.128,551
2022-10-08T00:36:18,42.805,6.029,CST-1368DR,4551,5040,11786,01.126,551
2022-10-08T00:39:19,42.805,6.029,CST-1368DR,4551,5040,11785,01.126,551
2022-10-08T00:42:21,42.805,6.029,CST-1368DR,4551,5033,11769,01.131,551
2022-10-08T00:45:22,42.805,6.029,CST-1368DR,4551,5039,11782,01.127,551
2022-10-08T00:48:24,42.805,6.029,CST-1368DR,4551,5040,11786,01.126,551
2022-10-08T00:51:25,42.805,6.029,CST-1368DR,4551,5041,11787,01.125,551
2022-10-08T00:54:27,42.805,6.029,CST-1368DR,4551,5031,11765,01.133,551
2022-10-08T00:57:29,42.805,6.029,CST-1368DR,4551,5040,11785,01.126,551
2022-10-08T01:00:30,42.805,6.029,CST-1368DR,4551,5037,11779,01.128,551
2022-10-08T01:03:32,42.805,6.029,CST-1368DR,4551,5035,11775,01.129,551
2022-10-08T01:06:33,42.805,6.029,CST-1368DR,4551,5036,11776,01.129,551
2022-10-08T01:09:35,42.805,6.029,CST-1368DR,4551,5036,11777,01.129,551
2022-10-08T01:12:37,42.805,6.029,CST-1368DR,4551,5036,11775,01.129,551
2022-10-08T01:15:38,42.805,6.029,CST-1368DR,4551,5035,11773,01.130,551
2022-10-08T01:18:40,42.805,6.029,CST-1368DR,4551,5035,11774,01.130,551
2022-10-08T01:21:41,42.805,6.029,CST-1368DR,4551,5039,11782,01.127,551
2022-10-08T01:24:43,42.805,6.029,CST-1368DR,4551,5036,11775,01.129,550
2022-10-08T01:27:44,42.805,6.029,CST-1368DR,4551,5034,11772,01.130,551
2022-10-08T01:30:46,42.805,6.029,CST-1368DR,4551,5035,11775,01.129,551
2022-10-08T01:33:48,42.805,6.029,CST-1368DR,4551,5035,11774,01.130,551
2022-10-08T01:36:49,42.805,6.029,CST-1368DR,4551,5036,11777,01.129,551
2022-10-08T01:39:51,42.805,6.029,CST-1368DR,4551,5039,11782,01.127,551
2022-10-08T01:42:52,42.805,6.029,CST-1368DR,4551,5040,11786,01.126,551
2022-10-08T01:45:54,42.805,6.029,CST-1368DR,4551,5041,11787,01.125,551
2022-10-08T01:48:55,42.805,6.029,CST-1368DR,4551,5041,11789,01.125,551
2022-10-08T01:51:57,42.805,6.029,CST-1368DR,4551,5041,11788,01.125,551
2022-10-08T01:54:59,42.805,6.029,CST-1368DR,4551,5046,11800,01.121,551
2022-10-08T01:58:00,42.805,6.029,CST-1368DR,4551,5044,11795,01.122,551
2022-10-08T02:01:02,42.805,6.029,CST-1368DR,4551,5042,11790,01.124,551
2022-10-08T02:04:03,42.805,6.029,CST-1368DR,4551,5040,11786,01.126,551
2022-10-08T02:07:05,42.805,6.029,CST-1368DR,4551,5041,11788,01.125,551
2022-10-08T02:10:07,42.805,6.029,CST-1368DR,4551,5040,11785,01.126,551
2022-10-08T02:13:08,42.805,6.029,CST-1368DR,4551,5043,11793,01.123,551
2022-10-08T02:16:10,42.805,6.029,CST-1368DR,4551,5043,11792,01.123,551
2022-10-08T02:19:11,42.805,6.029,CST-1368DR,4551,5041,11788,01.125,551
2022-10-08T02:22:13,42.805,6.029,CST-1368DR,4551,5041,11788,01.125,551
2022-10-08T02:25:14,42.805,6.029,CST-1368DR,4551,5040,11785,01.126,551
2022-10-08T02:28:16,42.805,6.029,CST-1368DR,4551,5044,11794,01.123,551
2022-10-08T02:31:18,42.805,6.029,CST-1368DR,4551,5044,11796,01.122,551
2022-10-08T02:34:19,42.805,6.029,CST-1368DR,4551,5045,11796,01.122,551
2022-10-08T02:37:21,42.805,6.029,CST-1368DR,4551,5041,11789,01.125,551
2022-10-08T02:40:22,42.805,6.029,CST-1368DR,4551,5040,11785,01.126,551
2022-10-08T02:43:24,42.805,6.029,CST-1368DR,4551,5034,11771,01.131,550
2022-10-08T02:46:26,42.805,6.029,CST-1368DR,4551,5036,11776,01.129,551
2022-10-08T02:49:27,42.805,6.029,CST-1368DR,4551,5032,11766,01.132,551
2022-10-08T02:52:29,42.805,6.029,CST-1368DR,4551,5049,11807,01.118,550
2022-10-08T02:55:30,42.805,6.029,CST-1368DR,4551,5050,11808,01.118,551
2022-10-08T02:58:32,42.805,6.029,CST-1368DR,4551,5047,11803,01.120,551
2022-10-08T03:01:33,42.805,6.029,CST-1368DR,4551,5050,11809,01.118,551
2022-10-08T03:04:35,42.805,6.029,CST-1368DR,4551,5047,11802,01.120,551
2022-10-08T03:07:37,42.805,6.029,CST-1368DR,4551,5048,11804,01.119,551
2022-10-08T03:10:38,42.805,6.029,CST-1368DR,4551,5047,11801,01.120,549
2022-10-08T03:13:40,42.805,6.029,CST-1368DR,4551,5047,11802,01.120,551
2022-10-08T03:16:41,42.805,6.029,CST-1368DR,4551,5049,11806,01.119,551
2022-10-08T03:19:43,42.805,6.029,CST-1368DR,4551,5046,11800,01.121,551
2022-10-08T03:22:44,42.805,6.029,CST-1368DR,4551,5048,11804,01.119,551
2022-10-08T03:25:46,42.805,6.029,CST-1368DR,4551,5044,11796,01.122,551
2022-10-08T03:28:48,42.805,6.029,CST-1368DR,4551,5045,11798,01.121,551
2022-10-08T03:31:49,42.805,6.029,CST-1368DR,4551,5044,11794,01.123,551
2022-10-08T03:34:51,42.805,6.029,CST-1368DR,4551,5047,11803,01.120,551
2022-10-08T03:37:52,42.805,6.029,CST-1368DR,4551,5047,11802,01.120,551
2022-10-08T03:40:54,42.805,6.029,CST-1368DR,4551,5046,11800,01.121,551
2022-10-08T03:43:56,42.805,6.029,CST-1368DR,4551,5046,11799,01.121,551
2022-10-08T03:46:57,42.805,6.029,CST-1368DR,4551,5045,11796,01.122,551
2022-10-08T03:49:59,42.805,6.029,CST-1368DR,4551,5045,11798,01.121,551
2022-10-08T03:53:00,42.805,6.029,CST-1368DR,4551,5045,11796,01.122,551
2022-10-08T03:56:02,42.805,6.029,CST-1368DR,4551,5045,11796,01.122,551
2022-10-08T03:59:03,42.805,6.029,CST-1368DR,4551,5044,11795,01.122,551
2022-10-08T04:02:05,42.805,6.029,CST-1368DR,4550,5044,11798,01.121,551
2022-10-08T04:05:07,42.805,6.029,CST-1368DR,4550,5046,11801,01.120,551
2022-10-08T04:08:08,42.805,6.029,CST-1368DR,4550,5043,11794,01.123,551
2022-10-08T04:11:10,42.805,6.029,CST-1368DR,4551,5040,11786,01.126,551
2022-10-08T04:14:11,42.805,6.029,CST-1368DR,4551,5044,11794,01.123,551
2022-10-08T04:17:13,42.805,6.029,CST-1368DR,4550,5044,11798,01.121,551
2022-10-08T04:20:14,42.805,6.029,CST-1368DR,4550,5043,11796,01.122,551
2022-10-08T04:23:16,42.805,6.029,CST-1368DR,4550,5044,11797,01.122,551
2022-10-08T04:26:18,42.805,6.029,CST-1368DR,4550,5042,11793,01.123,551
2022-10-08T04:29:19,42.805,6.029,CST-1368DR,4550,5043,11795,01.122,551
2022-10-08T04:32:21,42.805,6.029,CST-1368DR,4550,5043,11796,01.122,551
2022-10-08T04:35:22,42.805,6.029,CST-1368DR,4550,5045,11799,01.121,551
2022-10-08T04:38:24,42.805,6.029,CST-1368DR,4550,5041,11791,01.124,551
2022-10-08T04:41:26,42.805,6.029,CST-1368DR,4550,5044,11798,01.121,551
2022-10-08T04:44:27,42.805,6.029,CST-1368DR,4550,5043,11795,01.122,551
2022-10-08T04:47:29,42.805,6.029,CST-1368DR,4550,5043,11796,01.122,551
2022-10-08T04:50:30,42.805,6.029,CST-1368DR,4550,5044,11798,01.121,551
2022-10-08T04:53:32,42.805,6.029,CST-1368DR,4550,5042,11792,01.123,551
2022-10-08T04:56:33,42.805,6.029,CST-1368DR,4550,5041,11791,01.124,551
2022-10-08T04:59:35,42.805,6.029,CST-1368DR,4550,5046,11802,01.120,551
2022-10-08T05:02:37,42.805,6.029,CST-1368DR,4550,5043,11795,01.122,551
2022-10-08T05:05:38,42.805,6.029,CST-1368DR,4550,5049,11808,01.118,551
2022-10-08T05:08:40,42.805,6.029,CST-1368DR,4550,5050,11812,01.117,551
2022-10-08T05:11:41,42.805,6.029,CST-1368DR,4551,5052,11814,01.116,551
2022-10-08T05:14:43,42.805,6.029,CST-1368DR,4551,5050,11809,01.118,551
2022-10-08T05:17:44,42.805,6.029,CST-1368DR,4551,5047,11801,01.120,551
2022-10-08T05:20:46,42.805,6.029,CST-1368DR,4551,5044,11794,01.123,551
2022-10-08T05:23:48,42.805,6.029,CST-1368DR,4551,5044,11795,01.122,551
2022-10-08T05:26:49,42.805,6.029,CST-1368DR,4551,5046,11799,01.121,551
2022-10-08T05:29:51,42.805,6.029,CST-1368DR,4551,5046,11799,01.121,551
2022-10-08T05:32:52,42.805,6.029,CST-1368DR,4551,5054,11817,01.115,551
2022-10-08T05:35:54,42.805,6.029,CST-1368DR,4551,5049,11806,01.119,551
2022-10-08T05:38:56,42.805,6.029,CST-1368DR,4551,5053,11817,01.115,551
2022-10-08T05:41:57,42.805,6.029,CST-1368DR,4551,5048,11803,01.120,551
2022-10-08T05:44:59,42.805,6.029,CST-1368DR,4551,5046,11799,01.121,551
2022-10-08T05:48:00,42.805,6.029,CST-1368DR,4551,5053,11815,01.116,551
2022-10-08T05:51:02,42.805,6.029,CST-1368DR,4551,5043,11793,01.123,551
2022-10-08T05:54:03,42.805,6.029,CST-1368DR,4551,5043,11793,01.123,551
2022-10-08T05:57:05,42.805,6.029,CST-1368DR,4551,5046,11800,01.121,551
2022-10-08T06:00:07,42.805,6.029,CST-1368DR,4551,5044,11794,01.123,551
2022-10-08T06:03:08,42.805,6.029,CST-1368DR,4551,5050,11810,01.117,551
2022-10-08T06:06:10,42.805,6.029,CST-1368DR,4551,5042,11791,01.124,551
2022-10-08T06:09:11,42.805,6.029,CST-1368DR,4551,5043,11792,01.123,551
2022-10-08T06:12:13,42.805,6.029,CST-1368DR,4551,5042,11791,01.124,551
2022-10-08T06:15:14,42.805,6.029,CST-1368DR,4551,5046,11800,01.121,551
2022-10-08T06:18:16,42.805,6.029,CST-1368DR,4551,5041,11788,01.125,551
2022-10-08T06:21:18,42.805,6.029,CST-1368DR,4551,5043,11792,01.123,551
2022-10-08T06:24:19,42.805,6.029,CST-1368DR,4551,5042,11790,01.124,551
2022-10-08T06:27:21,42.805,6.029,CST-1368DR,4551,5042,11791,01.124,551
2022-10-08T06:30:22,42.805,6.029,CST-1368DR,4551,5041,11787,01.125,551
2022-10-08T06:33:24,42.805,6.029,CST-1368DR,4551,5043,11792,01.123,551
2022-10-08T06:36:26,42.805,6.029,CST-1368DR,4551,5047,11802,01.120,551
2022-10-08T06:39:27,42.805,6.029,CST-1368DR,4551,5047,11803,01.120,551
2022-10-08T06:42:29,42.805,6.029,CST-1368DR,4551,5044,11794,01.123,551
2022-10-08T06:45:30,42.805,6.029,CST-1368DR,4551,5050,11810,01.117,551
2022-10-08T06:48:32,42.805,6.029,CST-1368DR,4551,5044,11794,01.123,551
2022-10-08T06:51:33,42.805,6.029,CST-1368DR,4551,5045,11796,01.122,551
2022-10-08T06:54:35,42.805,6.029,CST-1368DR,4551,5043,11793,01.123,551
2022-10-08T06:57:37,42.805,6.029,CST-1368DR,4551,5044,11796,01.122,551
2022-10-08T07:00:38,42.805,6.029,CST-1368DR,4551,5044,11796,01.122,551
2022-10-08T07:03:40,42.805,6.029,CST-1368DR,4551,5044,11794,01.123,551
2022-10-08T07:06:41,42.805,6.029,CST-1368DR,4551,5043,11793,01.123,551
2022-10-08T07:09:43,42.805,6.029,CST-1368DR,4551,5044,11794,01.123,551
2022-10-08T07:12:45,42.805,6.029,CST-1368DR,4551,5043,11793,01.123,551
2022-10-08T07:15:46,42.805,6.029,CST-1368DR,4551,5042,11790,01.124,551
2022-10-08T07:18:48,42.805,6.029,CST-1368DR,4551,5040,11786,01.126,551
2022-10-08T07:21:49,42.805,6.029,CST-1368DR,4551,5041,11787,01.125,551
2022-10-08T07:24:51,42.805,6.029,CST-1368DR,4551,5040,11786,01.126,551
2022-10-08T07:27:52,42.805,6.029,CST-1368DR,4551,5042,11790,01.124,551
2022-10-08T07:30:54,42.805,6.029,CST-1368DR,4551,5041,11787,01.125,551
2022-10-08T07:33:56,42.805,6.029,CST-1368DR,4551,5042,11790,01.124,551
2022-10-08T07:36:57,42.805,6.029,CST-1368DR,4551,5040,11786,01.126,551
2022-10-08T07:39:59,42.805,6.029,CST-1368DR,4551,5038,11780,01.128,551
2022-10-08T07:43:00,42.805,6.029,CST-1368DR,4551,5040,11785,01.126,551
2022-10-08T07:46:02,42.805,6.029,CST-1368DR,4551,5037,11779,01.128,551
2022-10-08T07:49:03,42.805,6.029,CST-1368DR,4551,5039,11783,01.127,551
2022-10-08T07:52:05,42.805,6.029,CST-1368DR,4551,5038,11781,01.127,551
2022-10-08T07:55:07,42.805,6.029,CST-1368DR,4551,5040,11785,01.126,551
2022-10-08T07:58:08,42.805,6.029,CST-1368DR,4551,5038,11781,01.127,551
2022-10-08T08:01:10,42.805,6.029,CST-1368DR,4551,5039,11782,01.127,551
2022-10-08T08:04:11,42.805,6.029,CST-1368DR,4551,5038,11780,01.128,551
2022-10-08T08:07:13,42.805,6.029,CST-1368DR,4551,5039,11783,01.127,551
2022-10-08T08:10:14,42.805,6.029,CST-1368DR,4551,5040,11785,01.126,551
2022-10-08T08:13:16,42.805,6.029,CST-1368DR,4551,5040,11785,01.126,551
2022-10-08T08:16:18,42.805,6.029,CST-1368DR,4551,5040,11785,01.126,551
2022-10-08T08:19:19,42.805,6.029,CST-1368DR,4551,5039,11783,01.127,551
2022-10-08T08:22:21,42.805,6.029,CST-1368DR,4551,5039,11783,01.127,551
2022-10-08T08:25:22,42.805,6.029,CST-1368DR,4551,5039,11782,01.127,551
2022-10-08T08:28:24,42.805,6.029,CST-1368DR,4551,5038,11781,01.127,551
2022-10-08T08:31:26,42.805,6.029,CST-1368DR,4551,5037,11779,01.128,551
2022-10-08T08:34:27,42.805,6.029,CST-1368DR,4551,5037,11779,01.128,551
2022-10-08T08:37:29,42.805,6.029,CST-1368DR,4551,5038,11780,01.128,551
2022-10-08T08:40:30,42.805,6.029,CST-1368DR,4551,5037,11778,01.128,551
2022-10-08T08:43:32,42.805,6.029,CST-1368DR,4551,5041,11787,01.125,551
2022-10-08T08:46:33,42.805,6.029,CST-1368DR,4551,5042,11790,01.124,551
2022-10-08T08:49:35,42.805,6.029,CST-1368DR,4551,5039,11784,01.126,551
2022-10-08T08:52:37,42.805,6.029,CST-1368DR,4551,5039,11782,01.127,551
2022-10-08T08:55:38,42.805,6.029,CST-1368DR,4551,5037,11779,01.128,551
2022-10-08T08:58:40,42.805,6.029,CST-1368DR,4551,5036,11777,01.129,551
2022-10-08T09:01:41,42.805,6.029,CST-1368DR,4551,5037,11779,01.128,551
2022-10-08T09:04:43,42.805,6.029,CST-1368DR,4551,5037,11778,01.128,551
2022-10-08T09:07:45,42.805,6.029,CST-1368DR,4551,5036,11777,01.129,551
2022-10-08T09:10:46,42.805,6.029,CST-1368DR,4551,5038,11781,01.127,551
2022-10-08T09:13:48,42.805,6.029,CST-1368DR,4551,5039,11782,01.127,551
2022-10-08T09:16:49,42.805,6.029,CST-1368DR,4551,5037,11779,01.128,551
2022-10-08T09:19:51,42.805,6.029,CST-1368DR,4551,5037,11778,01.128,551
2022-10-08T09:22:52,42.805,6.029,CST-1368DR,4551,5037,11779,01.128,551
2022-10-08T09:25:54,42.805,6.029,CST-1368DR,4551,5037,11779,01.128,551
2022-10-08T09:28:56,42.805,6.029,CST-1368DR,4551,5037,11779,01.128,551
2022-10-08T09:31:57,42.805,6.029,CST-1368DR,4551,5037,11779,01.128,551
2022-10-08T09:34:59,42.805,6.029,CST-1368DR,4551,5038,11780,01.128,551
2022-10-08T09:38:00,42.805,6.029,CST-1368DR,4551,5038,11781,01.127,551
2022-10-08T09:41:02,42.805,6.029,CST-1368DR,4551,5038,11780,01.128,551
2022-10-08T09:44:03,42.805,6.029,CST-1368DR,4551,5037,11779,01.128,551
2022-10-08T09:47:05,42.805,6.029,CST-1368DR,4551,5039,11782,01.127,550
2022-10-08T09:50:07,42.805,6.029,CST-1368DR,4551,5037,11778,01.128,551
2022-10-08T09:53:08,42.805,6.029,CST-1368DR,4551,5037,11778,01.128,551
2022-10-08T09:56:10,42.805,6.029,CST-1368DR,4551,5037,11779,01.128,551
2022-10-08T09:59:11,42.805,6.029,CST-1368DR,4551,5036,11776,01.129,551
2022-10-08T10:02:13,42.805,6.029,CST-1368DR,4551,5038,11780,01.128,551
2022-10-08T10:05:15,42.805,6.029,CST-1368DR,4551,5038,11780,01.128,551
2022-10-08T10:08:16,42.805,6.029,CST-1368DR,4551,5039,11783,01.127,551
2022-10-08T10:11:18,42.805,6.029,CST-1368DR,4551,5037,11778,01.128,551
2022-10-08T10:14:19,42.805,6.029,CST-1368DR,4551,5037,11779,01.128,551
2022-10-08T10:17:21,42.805,6.029,CST-1368DR,4551,5037,11778,01.128,551
2022-10-08T10:20:22,42.805,6.029,CST-1368DR,4551,5036,11776,01.129,551
2022-10-08T10:23:24,42.805,6.029,CST-1368DR,4551,5038,11781,01.127,551
2022-10-08T10:26:26,42.805,6.029,CST-1368DR,4551,5037,11779,01.128,551
2022-10-08T10:29:27,42.805,6.029,CST-1368DR,4551,5036,11776,01.129,551
2022-10-08T10:32:29,42.805,6.029,CST-1368DR,4551,5035,11775,01.129,551
2022-10-08T10:35:30,42.805,6.029,CST-1368DR,4551,5037,11778,01.128,551
2022-10-08T10:38:32,42.805,6.029,CST-1368DR,4551,5037,11779,01.128,551
2022-10-08T10:41:33,42.805,6.029,CST-1368DR,4551,5037,11778,01.128,551
2022-10-08T10:44:35,42.805,6.029,CST-1368DR,4551,5037,11779,01.128,551
2022-10-08T10:47:37,42.805,6.029,CST-1368DR,4551,5037,11779,01.128,551
2022-10-08T10:50:38,42.805,6.029,CST-1368DR,4551,5053,11816,01.115,551
2022-10-08T10:53:40,42.805,6.029,CST-1368DR,4551,5041,11787,01.125,551
2022-10-08T10:56:41,42.805,6.029,CST-1368DR,4551,5040,11785,01.126,551
2022-10-08T10:59:43,42.805,6.029,CST-1368DR,4551,5038,11780,01.128,551
2022-10-08T11:02:44,42.805,6.029,CST-1368DR,4551,5038,11780,01.128,551
2022-10-08T11:05:46,42.805,6.029,CST-1368DR,4551,5036,11777,01.129,551
2022-10-08T11:08:48,42.805,6.029,CST-1368DR,4551,5036,11777,01.129,551
2022-10-08T11:11:49,42.805,6.029,CST-1368DR,4551,5037,11778,01.128,551
2022-10-08T11:14:51,42.805,6.029,CST-1368DR,4551,5035,11775,01.129,551
2022-10-08T11:17:52,42.805,6.029,CST-1368DR,4551,5034,11771,01.131,551
2022-10-08T11:20:54,42.805,6.029,CST-1368DR,4551,5035,11775,01.129,551
2022-10-08T11:23:56,42.805,6.029,CST-1368DR,4551,5036,11777,01.129,551
2022-10-08T11:26:57,42.805,6.029,CST-1368DR,4551,5038,11780,01.128,551
2022-10-08T11:29:59,42.805,6.029,CST-1368DR,4551,5046,11800,01.121,551
2022-10-08T11:33:00,42.805,6.029,CST-1368DR,4551,5041,11787,01.125,551
2022-10-08T11:36:02,42.805,6.029,CST-1368DR,4551,5040,11785,01.126,551
2022-10-08T11:39:03,42.805,6.029,CST-1368DR,4550,5041,11791,01.124,551
2022-10-08T11:42:05,42.805,6.029,CST-1368DR,4550,5040,11787,01.125,551
2022-10-08T11:45:07,42.805,6.029,CST-1368DR,4550,5040,11788,01.125,551
2022-10-08T11:48:08,42.805,6.029,CST-1368DR,4550,5041,11791,01.124,551
2022-10-08T11:51:10,42.805,6.029,CST-1368DR,4550,5041,11791,01.124,551
2022-10-08T11:54:11,42.805,6.029,CST-1368DR,4550,5041,11791,01.124,551
2022-10-08T11:57:13,42.805,6.029,CST-1368DR,4550,5041,11791,01.124,551
2022-10-08T12:00:15,42.805,6.029,CST-1368DR,4550,5039,11785,01.126,551
2022-10-08T12:03:16,42.805,6.029,CST-1368DR,4550,5041,11789,01.125,551
2022-10-08T12:06:18,42.805,6.029,CST-1368DR,4550,5040,11787,01.125,551
2022-10-08T12:09:19,42.805,6.029,CST-1368DR,4550,5040,11788,01.125,551
2022-10-08T12:12:21,42.805,6.029,CST-1368DR,4550,5040,11788,01.125,551
2022-10-08T12:15:22,42.805,6.029,CST-1368DR,4550,5040,11789,01.125,551
2022-10-08T12:18:24,42.805,6.029,CST-1368DR,4550,5039,11785,01.126,551
2022-10-08T12:21:26,42.805,6.029,CST-1368DR,4551,5048,11803,01.120,551
2022-10-08T12:24:27,42.805,6.029,CST-1368DR,4550,5037,11782,01.127,551
2022-10-08T12:27:29,42.805,6.029,CST-1368DR,4551,5048,11804,01.119,551
2022-10-08T12:30:30,42.805,6.029,CST-1368DR,4550,5040,11788,01.125,551
2022-10-08T12:33:32,42.805,6.029,CST-1368DR,4550,5037,11780,01.128,551
2022-10-08T12:36:33,42.805,6.029,CST-1368DR,4550,5037,11781,01.127,551
2022-10-08T12:39:35,42.805,6.029,CST-1368DR,4550,5036,11778,01.128,551
2022-10-08T12:42:37,42.805,6.029,CST-1368DR,4550,5036,11779,01.128,551
2022-10-08T12:45:38,42.805,6.029,CST-1368DR,4550,5035,11777,01.129,551
2022-10-08T12:48:40,42.805,6.029,CST-1368DR,4550,5033,11771,01.131,551
2022-10-08T12:51:41,42.805,6.029,CST-1368DR,4550,5034,11773,01.130,551
2022-10-08T12:54:43,42.805,6.029,CST-1368DR,4550,5029,11762,01.134,551
2022-10-08T12:57:45,42.805,6.029,CST-1368DR,4549,5024,11753,01.137,551
2022-10-08T13:00:46,42.805,6.029,CST-1368DR,4549,5031,11769,01.131,551
2022-10-08T13:03:48,42.805,6.029,CST-1368DR,4549,5031,11769,01.131,551
2022-10-08T13:06:49,42.805,6.029,CST-1368DR,4549,5033,11774,01.130,551
2022-10-08T13:09:51,42.805,6.029,CST-1368DR,4550,5030,11764,01.133,551
2022-10-08T13:12:52,42.805,6.029,CST-1368DR,4550,5033,11771,01.131,551
2022-10-08T13:15:54,42.805,6.029,CST-1368DR,4550,5031,11767,01.132,551
2022-10-08T13:18:56,42.805,6.029,CST-1368DR,4550,5033,11772,01.130,551
2022-10-08T13:21:57,42.805,6.029,CST-1368DR,4550,5033,11771,01.131,551
2022-10-08T13:24:59,42.805,6.029,CST-1368DR,4550,5033,11771,01.131,551
2022-10-08T13:28:00,42.805,6.029,CST-1368DR,4550,5030,11765,01.133,551
2022-10-08T13:31:02,42.805,6.029,CST-1368DR,4550,5031,11768,01.132,551
2022-10-08T13:34:03,42.805,6.029,CST-1368DR,4550,5034,11774,01.130,551
2022-10-08T13:37:05,42.805,6.029,CST-1368DR,4550,5033,11772,01.130,551
2022-10-08T13:40:07,42.805,6.029,CST-1368DR,4550,5033,11771,01.131,551
2022-10-08T13:43:08,42.805,6.029,CST-1368DR,4550,5033,11772,01.130,551
2022-10-08T13:46:10,42.805,6.029,CST-1368DR,4550,5033,11772,01.130,551
2022-10-08T13:49:11,42.805,6.029,CST-1368DR,4550,5035,11775,01.129,551
2022-10-08T13:52:13,42.805,6.029,CST-1368DR,4550,5034,11773,01.130,551
2022-10-08T13:55:15,42.805,6.029,CST-1368DR,4550,5033,11772,01.130,551
2022-10-08T13:58:16,42.805,6.029,CST-1368DR,4550,5034,11773,01.130,551
2022-10-08T14:01:18,42.805,6.029,CST-1368DR,4550,5034,11774,01.130,551
2022-10-08T14:04:19,42.805,6.029,CST-1368DR,4550,5030,11764,01.133,551
2022-10-08T14:07:21,42.805,6.029,CST-1368DR,4550,5026,11756,01.136,551
2022-10-08T14:10:22,42.805,6.029,CST-1368DR,4550,5031,11768,01.132,551
2022-10-08T14:13:24,42.805,6.029,CST-1368DR,4550,5033,11772,01.130,551
2022-10-08T14:16:26,42.805,6.029,CST-1368DR,4550,5034,11773,01.130,551
2022-10-08T14:19:27,42.805,6.029,CST-1368DR,4550,5032,11769,01.131,551
2022-10-08T14:22:29,42.805,6.029,CST-1368DR,4550,5034,11773,01.130,551
2022-10-08T14:25:30,42.805,6.029,CST-1368DR,4550,5034,11774,01.130,551
2022-10-08T14:28:32,42.805,6.029,CST-1368DR,4550,5033,11771,01.131,551
2022-10-08T14:31:33,42.805,6.029,CST-1368DR,4550,5031,11768,01.132,551
2022-10-08T14:34:35,42.805,6.029,CST-1368DR,4550,5034,11774,01.130,551
2022-10-08T14:37:37,42.805,6.029,CST-1368DR,4550,5023,11748,01.138,551
2022-10-08T14:40:38,42.805,6.029,CST-1368DR,4550,5035,11777,01.129,551
2022-10-08T14:43:40,42.805,6.029,CST-1368DR,4550,5035,11777,01.129,551
2022-10-08T14:46:41,42.805,6.029,CST-1368DR,4550,5036,11779,01.128,551
2022-10-08T14:49:43,42.805,6.029,CST-1368DR,4550,5035,11777,01.129,551
2022-10-08T14:52:45,42.805,6.029,CST-1368DR,4550,5035,11777,01.129,551
2022-10-08T14:55:46,42.805,6.029,CST-1368DR,4550,5036,11778,01.128,551
2022-10-08T14:58:48,42.805,6.029,CST-1368DR,4550,5035,11777,01.129,551
2022-10-08T15:01:49,42.805,6.029,CST-1368DR,4550,5035,11777,01.129,551
2022-10-08T15:04:51,42.805,6.029,CST-1368DR,4550,5034,11773,01.130,551
2022-10-08T15:07:52,42.805,6.029,CST-1368DR,4550,5029,11762,01.134,551
2022-10-08T15:10:54,42.805,6.029,CST-1368DR,4550,5029,11762,01.134,551
2022-10-08T15:13:56,42.805,6.029,CST-1368DR,4550,5033,11771,01.131,551
2022-10-08T15:16:57,42.805,6.029,CST-1368DR,4550,5018,11737,01.142,551
2022-10-08T15:19:59,42.805,6.029,CST-1368DR,4550,5030,11764,01.133,551
2022-10-08T15:23:00,42.805,6.029,CST-1368DR,4550,5029,11762,01.134,551
2022-10-08T15:26:02,42.805,6.029,CST-1368DR,4551,5030,11763,01.133,551
2022-10-08T15:29:04,42.805,6.029,CST-1368DR,4550,5029,11762,01.134,551
2022-10-08T15:32:05,42.805,6.029,CST-1368DR,4550,5031,11767,01.132,551
2022-10-08T15:35:07,42.805,6.029,CST-1368DR,4550,5031,11767,01.132,551
2022-10-08T15:38:08,42.805,6.029,CST-1368DR,4550,5030,11765,01.133,551
2022-10-08T15:41:10,42.805,6.029,CST-1368DR,4550,5027,11757,01.135,551
2022-10-08T15:44:11,42.805,6.029,CST-1368DR,4550,5027,11758,01.135,551
2022-10-08T15:47:13,42.805,6.029,CST-1368DR,4550,5028,11761,01.134,551
2022-10-08T15:50:15,42.805,6.029,CST-1368DR,4550,5028,11760,01.134,551
2022-10-08T15:53:16,42.805,6.029,CST-1368DR,4551,5029,11759,01.135,551
2022-10-08T15:56:18,42.805,6.029,CST-1368DR,4550,5029,11762,01.134,551
2022-10-08T15:59:19,42.805,6.029,CST-1368DR,4550,5029,11762,01.134,551
2022-10-08T16:02:21,42.805,6.029,CST-1368DR,4550,5028,11760,01.134,551
2022-10-08T16:05:22,42.805,6.029,CST-1368DR,4550,5027,11757,01.135,551
2022-10-08T16:08:24,42.805,6.029,CST-1368DR,4550,5024,11751,01.137,551
2022-10-08T16:11:26,42.805,6.029,CST-1368DR,4550,5024,11751,01.137,551
2022-10-08T16:14:27,42.805,6.029,CST-1368DR,4550,5024,11750,01.138,551
2022-10-08T16:17:29,42.805,6.029,CST-1368DR,4550,5026,11756,01.136,551
2022-10-08T16:20:30,42.805,6.029,CST-1368DR,4550,5027,11758,01.135,551
2022-10-08T16:23:32,42.805,6.029,CST-1368DR,4550,5025,11752,01.137,551
2022-10-08T16:26:34,42.805,6.029,CST-1368DR,4550,5023,11748,01.138,551
2022-10-08T16:29:35,42.805,6.029,CST-1368DR,4550,5025,11753,01.137,551
2022-10-08T16:32:37,42.805,6.029,CST-1368DR,4550,5025,11754,01.136,551
2022-10-08T16:35:38,42.805,6.029,CST-1368DR,4550,5023,11749,01.138,551
2022-10-08T16:38:40,42.805,6.029,CST-1368DR,4550,5025,11754,01.136,551